YAMAL 102

导读

YAMAL 102是一颗由独联体(CIS,实际归属俄罗斯)发射的民用地球同步轨道通信卫星,由科罗廖夫设计局制造、俄罗斯天然气工业公司运营,于1999年9月6日发射升空,定点东经90°赤道上空。卫星质量1360千克,搭载多个C波段转发器,主要服务电视信号传输与区域通信业务,是亚马尔卫星系列早期组网的重要组成部分,长期稳定为区域提供通信、广播电视服务。

Basic Information
目录编号:
25897
目录名称:
YAMAL 102
国际标识:
1999-047B
轨道中心:
EARTH
卫星名称:
YAMAL 102
卫星全名:
--
卫星状态:
在轨 (已飞行9781 天)
发射日期:
1999-09-06 UTC
国别 :
俄罗斯(独联体) (CIS)
星等 :
--
Orbit Information
数据来源 国际轨道数据 AOE轨道数据
星历时间 2026-06-16T21:16:03+0800
20小时前
查看轨道信息
2026-06-15T10:00:00+0800
2天前
查看轨道信息
半长轴 42247.546km 42247.49km
偏心率 0.0003995 0.000411
轨道倾角 13.690° 13.690°
近地点辐角 21.847° 20.424°
升交点赤经 12.704° 12.717°
平近点角 334.066° 166.577°
近地点 35852.531km 35851.989km
远地点 35886.287km 35886.717km
周期 1440.330分钟 1440.327分钟
每日圈数 0.999771 0.999773
Detailed Information
使用方式:
暂无
2D Orbit Map
3D Orbit Map
Orbit Altitude Analysis Chart
Orbit Inclination Analysis Chart
Orbit Comprehensive Analysis Chart
View Comprehensive Chart